FW2284 Weather Reports


Display with metric or nautical units.
time (UTC)temp
F
wind
direction
speed
MPH
gust
MPH
rain 1hr
in
rain 24hr
in
rain mn
in
humidity
%
barometer
mb
20260510043049 60 133 2.0 4.0 0.05 0.11 0.11 92 1011.9
20260510041551 60 97 0.0 2.0 0.07 0.11 0.11 92 1012.1
20260510040046 60 332 1.0 5.0 0.07 0.10 0.08 91 1012.3
20260510034549 60 1 1.0 6.0 0.07 0.09 0.07 90 1011.8
20260510033053 61 11 2.0 10.0 0.06 0.08 0.06 89 1012.3
20260510031544 61 333 5.0 20.0 0.03 0.05 0.03 87 1012.3
20260510030042 64 333 9.0 23.0 0.01 0.24 0.01 79 1012.0
20260510024539 66 236 0.0 0.0 0.00 0.23 0.00 66 1009.7
20260510023039 65 236 0.0 0.0 0.00 0.23 0.00 69 1009.3
20260510021539 63 236 0.0 0.0 0.00 0.23 0.00 74 1009.1
20260510020038 63 236 0.0 0.0 0.00 0.35 0.00 75 1009.0
20260510014538 64 236 0.0 0.0 0.00 0.35 0.00 76 1008.5
20260510013038 65 236 0.0 0.0 0.00 0.35 0.00 70 1008.3
20260510011536 68 244 0.0 0.0 0.00 0.35 0.00 67 1008.4
20260510010039 71 243 0.0 0.0 0.00 0.35 0.00 59 1008.4
20260510004534 74 244 0.0 0.0 0.00 0.35 0.00 53 1008.2
20260510003033 79 243 0.0 0.0 0.00 0.35 0.00 45 1008.1
20260510001531 81 243 0.0 0.0 0.00 0.35 0.00 38 1008.0
20260510000035 80 231 0.0 3.0 0.00 0.36 0.00 39 1008.0
20260509234539 80 244 0.0 3.0 0.00 0.36 0.00 38 1007.9
20260509233027 81 297 0.0 4.0 0.00 0.36 0.00 38 1007.9
20260509231526 80 291 2.0 4.0 0.00 0.36 0.00 37 1007.9
20260509230025 81 274 1.0 5.0 0.00 0.36 0.00 39 1007.8
20260509224537 81 258 2.0 5.0 0.00 0.36 0.00 39 1007.8
20260509223023 81 226 2.0 7.0 0.00 0.36 0.00 39 1007.8
20260509221522 80 276 4.0 8.0 0.00 0.36 0.00 37 1007.8
20260509220023 80 309 5.0 9.0 0.00 0.36 0.00 36 1007.8
20260509214519 81 296 3.0 7.0 0.00 0.36 0.00 37 1007.8
20260509213017 80 293 1.0 7.0 0.00 0.36 0.00 40 1007.9
20260509211516 79 337 3.0 8.0 0.00 0.36 0.00 38 1008.0
20260509210015 80 318 5.0 10.0 0.00 0.36 0.00 43 1008.3
20260509204513 79 335 2.0 6.0 0.00 0.36 0.00 42 1008.2
20260509203012 79 330 4.0 9.0 0.00 0.36 0.00 43 1008.3
20260509201512 79 285 3.0 6.0 0.00 0.36 0.00 46 1008.4
20260509200008 78 278 2.0 10.0 0.00 0.36 0.00 49 1008.5
20260509194506 78 319 4.0 9.0 0.00 0.36 0.00 46 1008.5
20260509193008 77 288 4.0 9.0 0.00 0.36 0.00 44 1008.7
20260509191503 77 304 5.0 13.0 0.00 0.36 0.00 46 1008.9
20260509190001 76 289 5.0 12.0 0.00 0.36 0.00 48 1008.9
20260509184601 76 308 4.0 13.0 0.00 0.36 0.00 46 1009.0
20260509183100 75 324 6.0 12.0 0.00 0.36 0.00 50 1009.0
20260509181609 75 304 5.0 12.0 0.00 0.36 0.00 49 1009.2
20260509180112 74 291 8.0 13.0 0.00 0.36 0.00 54 1009.1
20260509174550 73 311 6.0 12.0 0.00 0.36 0.00 55 1009.2
20260509173106 73 252 6.0 13.0 0.00 0.36 0.00 57 1009.5
20260509171551 72 241 5.0 11.0 0.00 0.36 0.00 62 1009.6
20260509170049 71 248 3.0 12.0 0.00 0.36 0.00 63 1009.8
20260509164538 70 252 5.0 11.0 0.00 0.36 0.00 65 1009.7
20260509163037 69 278 4.0 11.0 0.00 0.36 0.00 67 1009.8
20260509161536 69 202 5.0 10.0 0.00 0.36 0.00 69 1009.8
20260509160030 68 246 3.0 9.0 0.00 0.36 0.00 73 1009.7
20260509154526 67 271 2.0 11.0 0.00 0.36 0.00 76 1009.7
20260509153028 66 264 3.0 8.0 0.00 0.36 0.00 77 1009.6
20260509151519 64 203 4.0 7.0 0.00 0.36 0.00 80 1009.3
20260509150015 63 267 2.0 7.0 0.00 0.36 0.00 84 1009.3
20260509144516 62 188 5.0 10.0 0.00 0.36 0.00 84 1009.4
20260509143014 61 233 5.0 10.0 0.00 0.36 0.00 86 1009.3
20260509141515 61 206 3.0 6.0 0.00 0.36 0.00 89 1009.4
20260509140004 59 235 3.0 7.0 0.00 0.36 0.00 89 1009.2
20260509134501 58 217 3.0 8.0 0.00 0.36 0.00 91 1009.1
20260509133107 57 195 2.0 5.0 0.00 0.36 0.00 93 1009.0
20260509131556 56 264 1.0 5.0 0.00 0.36 0.00 94 1009.0
20260509130100 56 217 2.0 8.0 0.00 0.36 0.00 95 1009.2
20260509124552 56 262 1.0 5.0 0.00 0.36 0.00 96 1009.2
20260509123049 55 213 2.0 6.0 0.00 0.36 0.00 96 1009.0
20260509121552 55 209 1.0 6.0 0.00 0.36 0.00 96 1009.0
20260509120048 55 212 1.0 6.0 0.00 0.36 0.00 96 1008.8
20260509114549 55 217 2.0 6.0 0.00 0.36 0.00 96 1008.8
20260509113014 55 256 2.0 8.0 0.00 0.36 0.00 96 1008.7
20260509111514 55 257 2.0 6.0 0.00 0.36 0.00 96 1008.8
20260509110012 55 250 2.0 8.0 0.00 0.36 0.00 97 1008.7
20260509104511 55 248 2.0 6.0 0.00 0.36 0.00 97 1008.6
20260509103008 55 285 3.0 8.0 0.00 0.36 0.00 97 1008.5
20260509101513 54 205 3.0 8.0 0.00 0.36 0.00 97 1008.6
20260509100007 54 214 2.0 9.0 0.00 0.36 0.00 96 1008.3
20260509094504 54 233 3.0 9.0 0.00 0.36 0.00 96 1008.2
20260509093002 54 223 2.0 7.0 0.00 0.36 0.00 96 1008.2
20260509091502 55 214 3.0 6.0 0.00 0.36 0.00 96 1008.1
20260509090001 55 215 0.0 3.0 0.00 0.36 0.00 96 1008.1
20260509084501 55 219 1.0 7.0 0.00 0.36 0.00 96 1008.2
20260509083100 55 218 2.0 7.0 0.00 0.36 0.00 96 1008.1
20260509081659 55 205 2.0 6.0 0.00 0.36 0.00 96 1008.1
20260509074603 55 215 3.0 6.0 0.00 0.36 0.00 96 1008.1
20260509073059 54 200 1.0 7.0 0.00 0.36 0.00 96 1008.1
20260509071600 53 148 0.0 2.0 0.00 0.36 0.00 96 1008.3
20260509070104 52 255 0.0 0.0 0.00 0.36 0.00 95 1008.2
20260509064552 53 255 0.0 0.0 0.00 0.36 0.00 95 1008.2
20260509063105 54 255 0.0 0.0 0.00 0.36 0.00 95 1008.4
20260509061611 55 255 0.0 1.0 0.00 0.36 0.00 95 1008.3
20260509060056 55 191 1.0 2.0 0.00 0.36 0.00 95 1008.0
20260509054546 55 202 1.0 2.0 0.00 0.36 0.00 95 1008.0
20260509053043 55 153 1.0 4.0 0.00 0.36 0.00 95 1008.0
20260509051542 55 197 1.0 4.0 0.00 0.36 0.00 95 1008.1
20260509050042 55 156 1.0 3.0 0.00 0.36 0.36 94 1008.0
20260509044540 55 125 1.0 2.0 0.01 0.36 0.36 94 1008.0